Voltar ao catálogo

STARLINK-11671

AtivoComunicaçõesVLEO
NORAD 64319·PAYLOAD·🇺🇸 United States

Lançado Jun 10, 2025 de Cape Canaveral Space Force Station

Loading…

Próximas Passagens (próximas 24 horas)

TLE

AtualizadoSource: CelesTrak SupGP

Época: Sep 15, 2026, 03:20 UTC

1 64319C 25124C   26258.13937500  .00035039  00000+0  27227-3 0  2588
2 64319  42.9999 327.1171 0001512 253.9005  35.5258 15.70810853    19

Acompanhe STARLINK-11671 em tempo real com AllMySat

Download on the App Store